Regional Weather Roundup
Issued by NWS

Home | Current Version | Previous Version | Text Only | Print | Product List | Glossary On
Versions: 1 2 3 4 5 6 7 8 9 10 11 12 13 14 15 16 17 18 19 20 21 22 23 24 25 26 27
000
ASUS46 KPQR 302010
RWROR

OREGON REGIONAL WEATHER ROUNDUP
NATIONAL WEATHER SERVICE PORTLAND OR
100 PM PDT TUE AUG 30 2016

NOTE: "FAIR" INDICATES FEW OR NO CLOUDS BELOW 12,000 FEET WITH
NO SIGNIFICANT WEATHER AND/OR OBSTRUCTIONS TO VISIBILITY.

ORZ001>013-302100-
NORTHWEST OREGON


CITY           SKY/WX    TMP DP  RH WIND       PRES   REMARKS
ASTORIA        CLOUDY    65  55  70 SW16      30.01S
NEWPORT        PTSUNNY   64  55  72 SW13      30.08S
PORTLAND       CLOUDY    65  50  58 SW6       30.04F
VANCOUVER WA   CLOUDY    63  51  65 CALM      30.04F
SCAPPOOSE      CLOUDY    64  51  62 E8        30.04F
HILLSBORO      CLOUDY    64  52  64 S5        30.04F
AURORA         CLOUDY    64  50  60 SE5       30.04F
MCMINNVILLE    CLOUDY    68  51  54 VRB3      30.03F
SALEM          CLOUDY    66  51  58 SE9       30.02F
CORVALLIS        N/A     72  52  49 SE7       30.04F
EUGENE         CLOUDY    68  51  54 W3        30.04F
$$

ORZ021-028-302100-
SOUTHWEST OREGON


CITY           SKY/WX    TMP DP  RH WIND       PRES   REMARKS
NORTH BEND     CLOUDY    64  55  72 W9        30.06F
BROOKINGS      SUNNY     65  53  65 S6        30.09S
ROSEBURG       CLOUDY    69  48  47 SE5       30.04F
SEXTON SUMMIT  SUNNY     64  44  48 VRB5      30.09S
MEDFORD        MOSUNNY   74  43  32 NW8       30.00F
$$

ORZ014>016-041-302100-
COLUMBIA GORGE


CITY           SKY/WX    TMP DP  RH WIND       PRES   REMARKS
TROUTDALE      CLOUDY    64  51  62 CALM      30.03F
THE DALLES     PTSUNNY   72  50  45 NW13      29.92F
$$

ORZ029>031-041-044-049-050-061>064-502-503-505>511-302100-
EASTERN OREGON


CITY           SKY/WX    TMP DP  RH WIND       PRES   REMARKS
REDMOND        LGT RAIN  71  41  33 E6        30.01R
BEND           DRIZZLE   70  45  40 VRB3      30.02R
PRINEVILLE     CLOUDY    70  45  40 CALM      30.04R
KLAMATH FALLS  SUNNY     73  36  25 SE6       30.07F
LAKEVIEW       CLOUDY    75  30  19 S10       30.12F
HERMISTON      CLOUDY    79  50  36 W13       29.88F
PENDLETON      CLOUDY    78  45  30 W12       29.90S
JOHN DAY       CLOUDY    80  27  14 W7        30.01F
MEACHAM        CLOUDY    81  34  18 NW6       30.00S
LA GRANDE      CLOUDY    77  41  27 NW3       29.94F
BAKER CITY     CLOUDY    77  44  30 W7        29.97F
BURNS          CLOUDY    75  28  17 NE9       30.03F
ROME             N/A     87  11   6 VRB3      30.01F
ONTARIO        CLOUDY    81  47  30 VRB5      29.91F
$$




USA.gov is the U.S. government's official web portal to all federal, state and local government web resources and services.